Wind_Speed
7 7 8 5 7 10 13 10 7 4 5 4 5 1 3 5 7 4 3 19 19 19 21 18 18 17 15 12 10 8 8 8 8 8 7 9 9 8 9 8 8 9 9 10 12 12 9 6 5
13 8 8 8 10 10 8 9 6 6 8 6 6 8 3 5 6 3 2 17 19 18 17 17 11 12 13 9 9 8 8 8 8 8 7 9 9 9 8 9 9 10 10 10 11 9 8 6 6
11 11 17 12 11 6 6 7 4 6 4 4 10 9 1 3 2 5 5 15 19 20 19 12 8 9 10 7 7 7 7 7 6 6 7 9 9 10 9 9 10 11 11 12 11 11 9 9 8
10 12 9 10 9 8 9 6 3 6 6 5 8 5 4 2 5 5 6 15 19 19 15 11 11 10 10 8 6 5 5 4 6 4 7 9 9 10 9 10 11 12 12 12 11 11 10 13 9
16 17 11 6 9 8 6 4 4 5 6 6 6 8 6 5 6 4 7 15 17 16 14 13 12 11 9 9 6 5 4 1 7 6 8 8 9 9 10 11 11 11 11 12 11 9 8 9 8
15 9 9 5 11 10 8 4 7 7 6 8 8 10 8 6 6 4 8 18 19 13 15 16 14 11 8 7 5 4 3 4 6 8 9 8 9 10 10 12 13 12 11 10 8 8 10 10 9
9 8 10 6 7 3 5 3 2 4 4 5 5 7 10 13 4 2 10 20 19 15 16 16 13 11 10 8 6 4 3 3 8 9 8 8 9 10 10 14 13 12 10 8 9 10 9 8 11
6 5 6 8 4 7 4 5 3 6 7 7 8 8 10 10 10 3 11 21 20 19 17 14 12 10 9 8 8 6 4 5 8 9 8 8 9 11 12 15 14 12 12 12 14 13 15 3 8
8 5 7 6 4 2 4 8 5 9 10 13 10 11 12 11 11 5 10 19 21 21 17 17 13 11 8 11 9 8 6 6 7 8 7 7 10 12 14 16 16 15 14 14 10 14 23 17 10
7 6 5 6 5 4 4 1 5 8 10 13 13 14 10 14 8 4 10 18 20 19 16 17 16 13 12 11 10 9 8 8 8 10 8 9 11 13 13 16 16 17 17 13 15 15 15 20 18
12 6 4 3 5 3 3 4 4 7 10 12 13 9 8 7 10 1 10 12 11 16 15 16 17 15 12 12 12 11 8 9 11 11 10 10 11 14 14 15 15 15 18 14 13 11 9 15 19
12 3 2 5 3 4 5 4 8 11 12 12 12 6 4 8 13 6 9 14 17 15 14 12 20 15 14 11 14 12 7 10 12 12 11 11 12 14 16 15 15 13 13 13 9 2 6 9 9
5 6 5 5 6 7 6 9 11 14 12 12 11 8 8 9 12 14 1 14 16 16 15 10 12 17 15 15 15 11 10 12 13 12 12 11 12 14 16 16 15 15 14 10 9 8 5 5 6
8 3 7 6 10 8 7 8 13 14 13 11 9 7 10 9 10 12 9 5 15 17 15 15 14 14 14 12 12 12 10 13 13 13 11 12 14 14 15 17 16 15 12 10 10 8 2 4 3
6 5 9 10 13 13 13 10 9 11 12 10 7 7 7 6 8 10 9 7 10 12 16 15 16 16 13 12 13 12 12 16 13 12 11 14 13 14 17 19 17 13 11 9 10 7 2 3 3
6 9 10 7 13 15 11 6 8 11 11 8 8 8 7 7 7 7 6 3 9 13 11 13 15 16 15 15 12 13 15 18 15 14 13 14 13 14 17 17 17 15 11 10 9 5 2 2 3
10 11 10 15 13 18 14 7 8 10 11 12 10 8 7 7 6 9 4 4 3 11 12 13 13 16 16 19 15 16 16 18 18 15 15 16 14 13 17 19 16 13 13 10 8 6 6 5 5
5 6 14 15 14 14 19 10 8 13 9 13 14 12 8 6 5 6 7 5 2 7 11 12 15 18 19 19 19 20 16 20 20 19 17 18 17 15 17 19 17 15 13 12 10 3 6 6 6
14 16 20 15 15 14 22 14 6 14 20 16 17 15 11 3 5 6 4 7 3 3 5 8 9 13 15 14 15 16 16 17 19 22 23 20 18 15 15 17 15 14 11 13 8 6 7 4 4
16 19 14 17 20 12 14 16 11 12 16 16 17 18 9 7 7 6 5 3 6 3 4 6 8 9 11 11 13 15 15 16 22 29 28 23 21 16 17 17 15 11 9 11 9 10 9 6 5
14 19 14 20 21 12 14 21 21 20 18 19 21 20 14 6 5 7 3 2 6 8 4 6 7 7 6 8 11 15 12 13 10 19 25 23 21 17 16 15 14 14 9 11 11 9 8 7 5
16 6 17 20 20 15 14 16 27 24 22 23 17 17 17 4 6 8 2 3 2 3 5 3 4 6 6 4 6 12 10 11 13 13 17 20 19 17 15 14 13 14 14 14 11 10 11 11 10
19 13 20 15 20 16 21 14 27 25 15 20 19 14 12 12 5 6 4 1 3 4 1 2 1 4 6 5 5 10 17 19 18 13 16 17 15 16 14 13 13 11 10 14 14 12 11 12 11
18 22 18 18 18 13 19 9 18 11 12 18 17 14 13 17 9 9 6 5 10 9 7 4 2 1 4 6 6 5 18 21 21 19 19 18 18 17 13 13 16 16 13 13 11 10 10 10 10
19 13 8 4 5 10 14 15 20 15 11 9 10 13 14 17 14 9 11 9 4 3 3 6 2 4 4 5 5 4 11 21 21 20 20 20 17 15 16 16 14 13 12 12 12 10 11 11 11
17 18 13 5 3 5 13 10 15 20 14 11 7 13 12 15 15 12 7 7 4 7 5 5 4 3 4 5 5 4 9 15 19 20 21 21 17 16 20 18 14 11 10 12 14 13 13 12 12
20 21 19 15 9 6 9 18 21 10 8 10 11 16 14 14 13 13 10 5 2 1 3 3 5 3 3 4 6 6 6 11 16 19 21 24 22 20 21 19 16 12 11 11 13 14 14 14 13
26 19 10 13 2 4 7 14 19 9 11 13 12 10 10 12 16 12 14 9 2 3 5 7 10 8 4 5 5 8 8 8 13 17 18 20 22 22 21 20 18 16 14 11 11 11 13 14 15
13 23 15 10 10 6 1 11 9 3 8 11 12 13 9 7 8 14 13 13 8 7 10 7 13 13 7 5 6 7 9 9 11 15 16 18 19 19 19 17 18 17 14 15 13 13 15 15 15
11 20 28 17 10 12 6 22 16 10 14 11 8 9 10 9 5 6 13 15 15 9 10 3 11 15 10 7 8 8 10 11 12 12 15 17 17 17 16 17 17 19 18 17 15 16 17 19 19
Wind_Direction
54 133 126 116 108 111 95 83 82 97 91 57 40 330 240 240 182 260 230 175 178 172 165 163 154 154 140 135 128 122 107 107 101 105 110 104 100 94 100 111 115 120 119 112 111 120 136 141 120
67 101 117 121 114 104 103 105 94 56 40 39 356 28 220 212 229 215 253 179 181 181 174 177 180 164 135 132 133 134 119 112 103 109 108 108 103 106 114 119 116 116 120 118 118 123 121 111 90
114 104 128 101 87 67 107 88 25 64 50 21 351 351 7 178 288 214 175 182 174 178 190 205 201 165 138 140 149 136 123 117 108 108 112 103 103 112 123 128 122 118 121 122 124 116 106 92 88
109 145 129 108 87 90 117 130 279 19 12 8 14 3 15 301 104 99 150 180 178 179 199 199 164 158 148 147 148 137 118 135 122 119 115 110 108 114 131 130 127 130 126 126 126 117 101 86 64
92 113 124 72 74 102 115 113 234 343 4 1 11 3 42 59 89 168 169 183 182 174 185 159 166 161 154 147 146 137 129 136 143 139 121 124 112 121 138 140 136 132 127 132 127 104 79 77 54
95 74 74 81 93 116 116 117 199 311 340 358 0 18 28 20 63 105 188 185 178 181 189 181 174 165 156 139 146 150 106 130 149 139 127 128 117 131 143 138 132 137 143 136 112 70 39 18 21
95 58 42 71 116 94 135 89 276 297 303 335 345 4 17 19 9 77 175 179 179 178 176 181 176 168 159 145 153 161 103 115 143 135 135 128 123 133 147 143 141 137 126 101 74 49 21 14 356
33 26 17 43 148 129 124 162 271 278 320 316 308 326 334 332 352 224 185 185 189 178 182 189 176 174 163 169 171 167 148 137 137 138 140 128 125 138 154 142 140 131 118 94 87 56 45 23 34
348 349 339 53 95 186 185 195 235 271 283 290 304 309 312 321 336 236 211 189 189 189 183 187 188 191 193 180 180 176 169 172 147 137 141 124 128 148 161 143 140 132 113 105 85 70 65 60 61
309 309 3 18 55 57 230 317 295 292 288 308 302 311 311 331 345 219 206 196 190 197 196 187 193 194 192 191 183 183 171 173 156 145 153 134 137 157 166 150 145 131 113 100 97 71 68 82 118
333 330 307 342 31 6 328 293 307 317 307 318 333 322 335 12 25 124 184 171 178 181 199 190 203 202 211 211 199 186 174 174 166 160 165 143 149 161 168 158 147 132 123 116 98 98 82 102 117
310 214 18 357 358 333 329 312 341 315 318 325 340 8 13 24 23 46 167 179 186 189 185 206 197 206 229 221 211 198 186 180 172 168 174 158 159 167 169 169 153 135 122 116 110 111 130 111 110
57 264 210 313 329 323 320 320 310 307 316 318 336 15 26 32 21 25 142 196 198 198 201 200 190 213 215 229 208 206 200 189 176 180 184 170 172 177 178 175 161 144 142 137 151 152 105 28 84
324 320 236 234 297 307 306 292 284 305 306 319 342 2 28 36 23 13 26 190 202 209 205 201 197 212 214 211 205 204 196 185 191 187 191 206 195 187 191 176 165 164 168 162 171 169 108 7 25
303 274 237 239 285 286 306 289 282 311 290 312 336 333 1 8 17 19 22 121 189 218 210 208 205 211 211 218 199 203 211 192 198 186 188 188 185 192 201 186 173 170 175 179 194 194 200 31 14
256 243 273 280 275 283 282 306 276 330 304 307 320 322 329 351 358 32 11 75 156 189 205 205 209 209 215 203 205 211 206 197 198 202 198 194 201 203 209 200 187 197 186 195 211 225 258 4 9
238 270 291 300 302 262 249 308 269 316 325 300 310 310 322 302 3 43 51 43 155 174 200 217 211 210 211 214 221 213 208 204 204 210 200 199 202 208 208 208 183 187 193 209 221 230 282 293 309
245 302 302 309 318 293 247 293 260 291 302 315 301 302 303 303 334 2 56 60 94 172 191 199 205 208 209 214 215 217 220 216 210 210 207 204 212 210 202 200 200 215 204 214 234 246 252 274 296
258 286 297 335 331 258 248 280 307 251 271 279 294 308 308 345 290 306 348 66 76 188 173 178 195 205 211 215 221 223 223 225 221 218 212 210 212 208 205 203 199 209 222 234 214 233 232 240 276
253 280 299 323 327 279 248 261 285 263 278 279 295 291 303 272 262 284 321 45 66 66 197 185 184 201 207 211 209 208 215 224 228 221 214 211 209 211 206 209 208 195 233 235 233 234 241 246 236
266 283 308 309 323 327 265 266 272 274 280 281 285 280 266 273 265 277 19 357 91 64 73 189 191 199 206 204 208 208 211 200 188 181 188 193 206 206 210 213 220 221 242 226 230 212 236 259 228
290 281 299 306 314 307 299 299 295 288 270 267 271 267 258 239 232 239 132 107 130 89 63 86 204 223 237 240 225 216 204 189 179 181 190 199 208 208 208 216 214 217 230 228 224 225 244 266 256
279 296 289 296 284 306 295 295 294 304 235 237 251 267 238 221 185 220 159 50 310 242 240 39 46 239 245 258 262 227 204 200 203 201 202 205 214 214 206 208 208 216 217 228 230 234 247 255 257
288 292 274 266 287 291 297 284 298 301 256 254 258 239 227 215 172 142 221 238 276 265 240 245 9 287 257 262 276 256 210 206 206 204 207 208 221 226 221 211 208 205 212 227 229 226 231 245 254
278 257 246 301 302 241 274 303 272 323 299 259 288 219 221 204 194 161 127 108 127 242 282 257 262 347 289 265 273 270 216 214 211 206 208 214 225 220 214 216 213 217 227 224 226 235 242 252 254
273 258 235 203 211 258 299 256 286 315 297 236 248 198 208 207 204 194 150 126 109 262 286 275 251 334 330 288 256 252 232 219 218 214 208 208 211 210 211 213 223 220 228 232 238 245 248 249 254
239 246 252 244 275 296 266 280 299 299 172 202 197 194 197 207 212 203 202 173 177 222 227 196 208 262 344 298 262 253 243 229 224 218 211 205 204 210 216 216 224 226 241 242 250 246 251 254 254
238 251 232 219 184 254 273 293 301 281 193 200 184 199 215 226 231 222 217 210 170 214 244 241 245 244 274 308 276 245 242 223 216 217 211 205 208 211 221 217 222 231 247 242 250 244 250 254 254
223 227 234 233 228 174 241 285 351 90 181 208 212 209 226 266 252 242 222 220 224 251 268 245 242 243 273 290 285 256 241 234 225 223 213 208 210 210 217 229 235 234 230 242 237 249 261 264 260
249 252 245 231 231 224 234 268 290 302 249 227 205 226 232 244 233 237 214 220 230 244 275 245 251 247 248 272 270 270 242 235 226 218 211 208 210 208 209 213 219 224 236 242 245 250 255 257 256
Height
3171 3172 3174 3175 3179 3177 3176 3178 3177 3176 3177 3176 3176 3177 3177 3176 3176 3180 3176 3176 3179 3182 3182 3184 3186 3187 3188 3192 3194 3196 3196 3198 3199 3199 3200 3200 3199 3201 3201 3202 3203 3203 3203 3203 3203 3204 3205 3206 3208
3174 3174 3175 3175 3178 3177 3178 3178 3177 3178 3178 3177 3177 3176 3177 3177 3176 3175 3176 3176 3180 3182 3184 3185 3185 3187 3189 3191 3195 3197 3198 3199 3201 3201 3202 3202 3201 3202 3203 3204 3204 3205 3205 3204 3205 3205 3207 3207 3208
3174 3174 3177 3176 3177 3178 3180 3180 3177 3178 3177 3177 3177 3176 3175 3175 3175 3174 3175 3177 3180 3183 3184 3186 3188 3188 3191 3194 3197 3198 3200 3200 3202 3202 3203 3203 3203 3204 3204 3205 3206 3207 3207 3207 3207 3207 3208 3209 3209
3175 3177 3177 3177 3178 3178 3179 3179 3180 3177 3178 3178 3177 3177 3176 3175 3175 3175 3176 3178 3180 3183 3185 3187 3188 3190 3193 3196 3199 3199 3201 3201 3202 3203 3204 3204 3205 3205 3206 3207 3207 3208 3208 3208 3208 3208 3209 3210 3211
3176 3177 3177 3178 3178 3179 3180 3181 3179 3178 3178 3178 3178 3178 3176 3175 3174 3175 3177 3179 3181 3184 3186 3188 3190 3192 3194 3196 3199 3200 3201 3201 3202 3203 3204 3205 3206 3206 3207 3208 3209 3210 3210 3209 3210 3211 3212 3212 3212
3181 3180 3179 3179 3179 3180 3180 3180 3180 3180 3179 3178 3178 3178 3177 3176 3175 3175 3177 3178 3181 3184 3186 3188 3191 3193 3195 3197 3200 3200 3201 3201 3202 3204 3204 3206 3207 3207 3209 3209 3210 3211 3211 3212 3213 3214 3213 3211 3211
3183 3181 3181 3181 3181 3181 3181 3181 3181 3180 3179 3179 3178 3177 3178 3176 3175 3175 3176 3178 3180 3183 3186 3190 3193 3194 3196 3197 3200 3201 3202 3202 3203 3204 3205 3207 3208 3209 3211 3211 3211 3213 3215 3217 3217 3217 3216 3214 3211
3184 3183 3182 3181 3181 3182 3181 3181 3179 3179 3179 3178 3177 3177 3177 3175 3174 3174 3175 3177 3180 3183 3186 3190 3193 3195 3196 3197 3198 3201 3203 3204 3204 3205 3205 3206 3208 3209 3211 3212 3213 3216 3217 3219 3218 3217 3216 3214 3214
3184 3185 3183 3183 3183 3183 3182 3182 3182 3179 3179 3177 3176 3175 3176 3174 3172 3172 3173 3175 3179 3182 3186 3189 3193 3195 3196 3196 3198 3200 3202 3205 3205 3206 3206 3207 3208 3210 3212 3212 3214 3216 3218 3219 3219 3218 3215 3214 3215
3184 3184 3183 3183 3183 3182 3181 3181 3181 3181 3178 3176 3176 3174 3174 3172 3170 3169 3171 3174 3178 3182 3186 3189 3191 3193 3195 3196 3198 3200 3202 3204 3206 3206 3207 3207 3208 3211 3213 3213 3214 3217 3219 3220 3220 3219 3219 3216 3216
3185 3184 3182 3184 3183 3183 3182 3181 3180 3179 3177 3176 3176 3174 3173 3170 3169 3169 3171 3174 3179 3182 3185 3188 3191 3192 3194 3197 3198 3200 3201 3204 3206 3206 3207 3207 3208 3211 3214 3215 3216 3220 3220 3221 3221 3221 3220 3219 3219
3183 3183 3183 3184 3183 3183 3182 3181 3179 3177 3177 3175 3175 3174 3171 3170 3168 3168 3171 3174 3176 3180 3184 3187 3188 3190 3194 3196 3198 3199 3202 3204 3205 3206 3207 3208 3209 3212 3214 3215 3217 3220 3221 3222 3222 3220 3221 3221 3223
3183 3183 3184 3183 3183 3182 3181 3180 3179 3176 3175 3174 3174 3172 3171 3170 3169 3168 3170 3173 3176 3179 3183 3186 3188 3190 3193 3195 3197 3199 3202 3203 3205 3207 3208 3208 3209 3212 3215 3216 3218 3219 3220 3221 3221 3221 3222 3223 3222
3183 3183 3183 3183 3182 3182 3181 3181 3179 3175 3175 3174 3173 3173 3172 3171 3170 3169 3170 3172 3175 3178 3181 3185 3187 3190 3192 3194 3196 3198 3201 3203 3205 3207 3208 3209 3211 3213 3216 3217 3218 3219 3220 3221 3221 3222 3222 3222 3223
3182 3183 3183 3183 3182 3182 3181 3180 3177 3175 3174 3174 3173 3173 3172 3171 3172 3170 3171 3172 3175 3178 3181 3184 3187 3188 3190 3193 3194 3197 3200 3202 3204 3207 3208 3209 3211 3213 3215 3217 3218 3219 3220 3222 3221 3222 3223 3223 3222
3181 3182 3182 3183 3182 3181 3181 3177 3176 3174 3172 3173 3172 3172 3172 3172 3172 3173 3173 3173 3174 3177 3181 3183 3185 3187 3189 3191 3193 3196 3198 3201 3203 3206 3207 3210 3211 3213 3214 3216 3218 3219 3220 3221 3222 3223 3223 3224 3223
3181 3181 3181 3180 3179 3179 3178 3175 3174 3173 3171 3171 3172 3171 3171 3171 3172 3173 3173 3174 3174 3176 3178 3181 3183 3185 3188 3190 3192 3195 3196 3199 3202 3204 3206 3209 3211 3212 3213 3215 3217 3219 3220 3221 3221 3223 3223 3222 3221
3182 3181 3180 3178 3178 3177 3177 3174 3174 3171 3170 3170 3170 3170 3171 3171 3172 3173 3174 3174 3175 3176 3177 3179 3181 3183 3186 3187 3189 3192 3194 3196 3199 3203 3206 3208 3209 3211 3212 3213 3216 3218 3219 3221 3221 3221 3221 3220 3219
3180 3180 3178 3174 3174 3173 3173 3173 3173 3172 3169 3168 3169 3169 3170 3170 3172 3172 3173 3174 3174 3175 3176 3177 3179 3180 3183 3185 3188 3190 3192 3194 3196 3200 3203 3206 3207 3209 3211 3212 3214 3217 3218 3220 3221 3221 3221 3220 3221
3178 3177 3173 3172 3172 3170 3169 3169 3170 3169 3168 3166 3167 3167 3169 3169 3169 3171 3172 3174 3175 3175 3175 3176 3177 3180 3182 3184 3185 3188 3189 3191 3192 3193 3198 3202 3205 3208 3209 3211 3213 3216 3217 3219 3220 3221 3220 3220 3220
3174 3174 3171 3172 3169 3168 3167 3166 3166 3166 3164 3164 3163 3164 3166 3168 3168 3169 3171 3173 3174 3174 3175 3176 3177 3179 3180 3181 3183 3185 3187 3188 3189 3190 3196 3200 3203 3207 3208 3211 3212 3214 3215 3216 3218 3219 3218 3219 3219
3171 3171 3170 3169 3168 3166 3166 3160 3160 3159 3159 3159 3159 3160 3163 3166 3167 3168 3170 3172 3174 3174 3175 3176 3176 3178 3179 3180 3182 3183 3186 3187 3190 3194 3197 3199 3202 3205 3206 3209 3211 3213 3213 3214 3217 3217 3218 3218 3219
3168 3169 3168 3167 3166 3164 3163 3162 3154 3155 3153 3154 3156 3157 3160 3164 3165 3166 3168 3170 3172 3173 3174 3175 3175 3176 3177 3179 3180 3181 3184 3187 3189 3192 3196 3198 3201 3203 3205 3207 3210 3211 3212 3213 3215 3216 3216 3217 3217
3166 3165 3165 3165 3164 3162 3160 3161 3149 3152 3152 3153 3155 3155 3158 3161 3164 3164 3166 3167 3168 3171 3172 3173 3173 3174 3175 3177 3178 3179 3181 3184 3187 3190 3194 3196 3199 3201 3202 3205 3207 3209 3210 3211 3212 3213 3214 3214 3214
3163 3163 3163 3164 3164 3161 3159 3158 3149 3148 3149 3149 3151 3154 3155 3158 3161 3163 3164 3164 3165 3168 3170 3171 3172 3173 3173 3175 3176 3177 3179 3182 3185 3188 3192 3194 3196 3198 3201 3204 3206 3207 3208 3209 3210 3211 3212 3212 3212
3160 3161 3161 3166 3166 3158 3157 3153 3147 3145 3144 3147 3148 3151 3154 3155 3158 3161 3162 3163 3164 3166 3169 3170 3171 3173 3173 3173 3174 3175 3177 3179 3183 3185 3188 3191 3194 3197 3199 3201 3203 3205 3206 3208 3208 3209 3210 3210 3210
3156 3156 3158 3158 3157 3157 3153 3151 3146 3142 3142 3144 3146 3148 3150 3152 3155 3158 3161 3162 3162 3164 3167 3169 3170 3172 3172 3173 3173 3175 3176 3178 3180 3183 3186 3188 3191 3194 3196 3198 3200 3202 3204 3205 3206 3207 3207 3207 3208
3149 3153 3154 3154 3157 3158 3149 3147 3143 3140 3141 3143 3144 3145 3147 3149 3152 3155 3158 3160 3161 3163 3165 3167 3169 3171 3171 3172 3173 3174 3175 3176 3178 3180 3182 3185 3188 3191 3193 3196 3198 3199 3201 3203 3203 3204 3205 3205 3205
3148 3149 3150 3151 3151 3150 3153 3144 3142 3140 3141 3143 3143 3145 3145 3147 3149 3151 3155 3158 3161 3162 3163 3165 3167 3169 3170 3170 3171 3172 3173 3175 3176 3177 3179 3182 3185 3187 3190 3193 3195 3197 3198 3199 3200 3201 3201 3201 3201
3145 3145 3146 3147 3147 3145 3146 3143 3141 3141 3140 3141 3142 3143 3145 3146 3148 3149 3152 3155 3158 3159 3161 3163 3165 3167 3168 3169 3169 3170 3171 3172 3174 3176 3178 3180 3182 3184 3187 3189 3191 3193 3195 3195 3196 3197 3197 3197 3198